Location: Hurecourt
(47.9030°N, 6.0653°E)
Time: 04:01:08
(UTC+00:00)

Cosmos 841 Rocket - Pass Details

Date: 14 July 2020
Orbit: 747 x 772 km, 74.0° (Epoch: 06 August)

Event Time Altitude Azimuth Distance (km) Brightness Sun altitude
Rises 02:49:38 0° 338° (NNW) 3,209 7.1 -8.7°
Reaches altitude 10° 02:52:01 10° 340° (NNW) 2,282 6.3 -8.5°
Maximum altitude 02:57:11 74° 66° (ENE) 789 3.8 -7.8°
Drops below altitude 10° 03:02:21 10° 152° (SSE) 2,281 5.8 -7.2°
Sets 03:04:43 0° 154° (SSE) 3,205 6.5 -6.9°
